Погода в Единке

Россия / Приморский край     47°09′12″N   138°42′45″E
темп.,
°C
ветер,
м/с
пор.,
м/с
влажн.,
%
обл.,
%
осадки,
мм/ч
давл.,
гПа
погр.,
м
15 апреля, чт
чт1501:00−3юз375757 0.0 1008230
04:00−3зюз236062 0.0 100899
07:00−2зюз3852100 0.0 10101302
10:00+1зсз473387 0.0 10101807
13:00+5зсз3729100 0.0 10102126
16:00+6зсз482999 0.0 10112282
19:00+4ююз11473 0.0 101411
22:000сз21591 0.0 101710
16 апреля, пт
пт1601:000сз22604 0.0 101814
04:000сз22615 0.0 101918
07:00+1ссз1158100 0.0 101924
10:00+5юв214786 0.0 1019405
13:00+6юв2256100 0.0 1019436
16:00+6ю346737 0.0 1018424
19:00+4ю3677100 0.0 1019172
22:00+1всв0192100 0.0 101922
17 апреля, сб
сб1701:00+1св229692 0.0 101819
04:00+2в1298100 2.0 101686
07:00+2св1299100 0.4 1015114
10:00+3вюв1197100 0.4 1014150
13:00+8ююз247330 0.0 1013626
16:00+6ююв248358 0.1 1014259
19:00+4ююв1189100 0.0 101474
22:00+2всв1195100 0.0 101528
18 апреля, вс
вс1801:00+2св1192100 0.0 101430
04:00+2св1296100 0.0 101339
07:00+3всв1188100 0.0 101232
10:00+6св3769100 0.0 1012423
13:00+8всв61066100 0.0 1009899
16:00+6св4984100 0.4 1008721
19:00+5св51386100 0.4 1007860
22:00+5ссв51388100 0.6 10061012
19 апреля, пн
пн1901:00+5ссв3893100 2.6 1004741
04:00+5с2690100 4.4 1002343
07:00+5ссз41182100 0.6 10001011
10:00+8ссв41166100 0.8 9981513
13:00+8с41069100 1.8 9971345
16:00+6св4975100 3.5 9981106
19:00+4в2389100 1.6 1000103
22:00+3юв1196100 1.9 100148